logo
App data

Caravanserail

Caravanserail is an arcade-ish trading game. Buy, set a price, and sell. It sounds simple but it'll take you some skill to set the right price according to the market tendencies...
Store | Hub | SteamDB
Developer: Jerome Bodin Publisher: Jerome Bodin
Genre: Indie, Simulation
Languages: English, French
Tags: Indie (25), Simulation (22), Trading (6)
Category: Single-player
Release date: Mar 10, 2016
Price: $1.49 50%
Old userscore: 53% Owners: 0 .. 20,000
Followers: 138
Playtime total: 03:02 (average) 04:34 (median)

Steam Spy is still in beta, so expect major bugs.

Owners data:

Access restricted.

This feature is only available to users with special access rights. Sorry.

If you want to proceed, you need to register or log in first and then back Steam Spy on Patreon. Look for Indie or Pro pledge.

Don't forget to use the same email as on Steam Spy!

If you've recently backed Steam Spy on Patreon, please note, that it might take around 15 minutes for your access rights to sync. In most cases you'll need to re-login on Steam Spy too.

Audience in 2 weeks:

Access restricted.

This feature is only available to users with special access rights. Sorry.

If you want to proceed, you need to register or log in first and then back Steam Spy on Patreon. Look for Indie or Pro pledge.

Don't forget to use the same email as on Steam Spy!

If you've recently backed Steam Spy on Patreon, please note, that it might take around 15 minutes for your access rights to sync. In most cases you'll need to re-login on Steam Spy too.

Peak daily concurrent players:

CCU data courtesy of SteamDB. Used with permission.

Hourly concurrent players:

Followers over time

Access restricted.

This feature is only available to users with special access rights. Sorry.

If you want to proceed, you need to register or log in first and then back Steam Spy on Patreon. Look for Indie or Pro pledge.

Don't forget to use the same email as on Steam Spy!

If you've recently backed Steam Spy on Patreon, please note, that it might take around 15 minutes for your access rights to sync. In most cases you'll need to re-login on Steam Spy too.

Views for top 50 videos on YouTube for this game:

Games similar to this one:

# Game Release date
Price
Score rank
(Userscore / Metascore)
Owners
Players
Playtime (Median)
1 Broken Dreams Feb 19, 2016 $0.99N/A (N/A)500,000 .. 1,000,0000%00:00 (00:00)
2 Autumn May 14, 2016 $0.54N/A (N/A)50,000 .. 100,0000%00:00 (00:00)
3 King's Guard TD Jun 8, 2016 $1.19N/A (N/A)200,000 .. 500,0000%00:00 (00:00)
4 Hyposphere May 5, 2016 $0.59N/A (N/A)200,000 .. 500,0000%00:00 (00:00)
5 Reptilian Rebellion Aug 7, 2016 $2.99N/A (N/A)50,000 .. 100,0000%00:00 (00:00)
6 One Last Chance Apr 7, 2016 $1.19N/A (N/A)20,000 .. 50,0000%00:00 (00:00)
7 Love in the Glen Jun 9, 2016 $1.79N/A (N/A)20,000 .. 50,0000%00:00 (00:00)
8 Forgotten, Not Lost - A Kinetic Novel Apr 2, 2016 $1.99N/A (N/A)20,000 .. 50,0000%00:00 (00:00)
9 Burst Mar 14, 2016 N/AN/A (N/A)20,000 .. 50,0000%00:00 (00:00)
10 Hustle Cat Mar 16, 2016 $2.99N/A (N/A)50,000 .. 100,0000%00:00 (00:00)
11 RePete Mar 9, 2016 $1.99N/A (N/A)0 .. 20,0000%00:00 (00:00)
12 Magma Tsunami Jun 1, 2016 $0.99N/A (N/A)200,000 .. 500,0000%00:00 (00:00)
13 Recursion Deluxe Feb 12, 2016 $0.74N/A (N/A)0 .. 20,0000%00:00 (00:00)
14 Rescue Team 5 Nov 18, 2015 $0.79N/A (N/A)0 .. 20,0000%00:00 (00:00)
15 Herding Dog Jan 15, 2016 $0.99N/A (N/A)0 .. 20,0000%00:00 (00:00)
16 The Last NightMary - A Lenda do Cabeça de Cuia Nov 2, 2015 $3.99N/A (N/A)50,000 .. 100,0000%00:00 (00:00)
17 Lift It Jan 20, 2017 $4.99N/A (N/A)50,000 .. 100,0000%00:00 (00:00)
18 12 Labours of Hercules IV: Mother Nature (Platinum Edition) Dec 25, 2015 $1.49N/A (N/A)20,000 .. 50,0000%00:00 (00:00)
19 Tennis in the Face Nov 18, 2015 $2.49N/A (N/A)0 .. 20,0000%00:00 (00:00)
20 Labyrinth Simulator Sep 21, 2015 $0.49N/A (N/A)0 .. 20,0000%00:00 (00:00)
21 The Deletion Jul 30, 2015 $0.49N/A (N/A)20,000 .. 50,0000%00:00 (00:00)
22 Archimedes Oct 6, 2016 $1.99N/A (N/A)20,000 .. 50,0000%00:00 (00:00)
23 Dungeon Painter Studio Feb 26, 2017 $14.99N/A (N/A)50,000 .. 100,0008.33%00:02 (00:00)
24 Ninja Stealth 2 Jan 30, 2017 $0.99N/A (N/A)50,000 .. 100,00010%03:03 (01:01)
25 Griptape Backbone May 5, 2017 FreeN/A (N/A)0 .. 20,0000%00:00 (00:00)
26 Winexy Jan 13, 2017 $0.49N/A (N/A)50,000 .. 100,0000%00:00 (00:00)
27 iREC Jan 16, 2017 $0.5N/A (N/A)100,000 .. 200,0000%00:00 (00:00)
28 Neon Prism Nov 18, 2016 $1.09N/A (N/A)100,000 .. 200,0000%00:00 (00:00)
29 The Survey Oct 27, 2016 $0.99N/A (N/A)20,000 .. 50,0000%00:00 (00:00)
30 GO AWAY, THERE'S KUMIS OVER THERE! Oct 28, 2016 $0.99N/A (N/A)50,000 .. 100,0000%00:00 (00:00)
31 Kombine Oct 14, 2016 $0.49N/A (N/A)20,000 .. 50,0009.09%04:41 (01:33)
32 Army of Pixels Oct 29, 2015 $4.99N/A (N/A)0 .. 20,0000%00:00 (00:00)
33 Turbo Pug 3D Sep 20, 2016 $0.99N/A (N/A)200,000 .. 500,0000%00:00 (00:00)
34 Where are my Internets? Dec 16, 2016 $1.49N/A (N/A)0 .. 20,0000%00:00 (00:00)
35 Football Blitz Jan 4, 2017 N/AN/A (N/A)0 .. 20,0000%00:00 (00:00)
36 Won't You Be My Laser? Sep 2, 2016 $0.49N/A (N/A)50,000 .. 100,0000%00:00 (00:00)
37 Optika Aug 26, 2016 $3.24N/A (N/A)0 .. 20,0000%00:00 (00:00)
38 Clock Simulator Jul 20, 2016 N/AN/A (N/A)0 .. 20,0000%00:00 (00:00)
39 ConflictCraft Dec 8, 2016 $0.49N/A (N/A)100,000 .. 200,0000%00:00 (00:00)
40 12 Labours of Hercules V: Kids of Hellas (Platinum Edition) Jun 17, 2016 $1.49N/A (N/A)20,000 .. 50,0000%00:00 (00:00)
41 Frog Climbers Oct 6, 2016 $1.39N/A (N/A)20,000 .. 50,0000%00:00 (00:00)
42 On Rusty Trails Jun 13, 2016 $1.29N/A (N/A/77%)0 .. 20,00016.67%00:30 (00:10)
43 Steam and Metal Feb 9, 2015 $4.99N/A (N/A)0 .. 20,0000%00:00 (00:00)
44 The Jackbox Party Pack Nov 26, 2014 $12.49N/A (N/A)200,000 .. 500,0000%00:00 (00:00)
45 Sinister City Oct 20, 2014 $0.49N/A (N/A)100,000 .. 200,0000%00:00 (00:00)
46 SinaRun Oct 26, 2015 $2.99N/A (N/A)20,000 .. 50,0000%00:00 (00:00)
47 Quantum Rush Champions Dec 4, 2014 $2.99N/A (N/A)20,000 .. 50,0000%00:00 (00:00)
48 A Good Snowman Is Hard To Build Feb 25, 2015 $2.99N/A (N/A)50,000 .. 100,0000%00:00 (00:00)
49 Bloop Reloaded Feb 6, 2015 FreeN/A (N/A)100,000 .. 200,0000%00:00 (00:00)
50 GamersGoMakers Aug 8, 2014 $8.99N/A (N/A)20,000 .. 50,0000%00:00 (00:00)
51 Cyto Jul 10, 2014 $3.99N/A (N/A)20,000 .. 50,0000%00:00 (00:00)
52 European Ship Simulator Nov 4, 2016 $9.99N/A (N/A)100,000 .. 200,0000%00:00 (00:00)
53 Marble Duel: Sphere-Matching Tactical Fantasy Nov 12, 2015 $2.24N/A (N/A)50,000 .. 100,0000%00:00 (00:00)
54 Tribloos 2 Jan 30, 2014 $4.99N/A (N/A)100,000 .. 200,0000%00:00 (00:00)
55 Grapple Mar 9, 2015 $2.44N/A (N/A)20,000 .. 50,0000%00:00 (00:00)
56 Girls Like Robots Feb 14, 2014 $4.89N/A (N/A)100,000 .. 200,0000%00:00 (00:00)
57 Dead Man's Draw Feb 6, 2014 $3.49N/A (N/A)50,000 .. 100,0000%00:00 (00:00)
58 Particulars Nov 19, 2014 FreeN/A (N/A/74%)0 .. 20,0000%00:00 (00:00)
59 Oozi: Earth Adventure Dec 5, 2013 $9.99N/A (N/A/66%)20,000 .. 50,0000%00:00 (00:00)
60 Luxor Evolved Mar 1, 2012 $3.99N/A (N/A)50,000 .. 100,0000%00:00 (00:00)
61 Governor of Poker 2 - Premium Edition Oct 11, 2010 $14.99N/A (N/A)20,000 .. 50,0000%00:00 (00:00)
62 Axel & Pixel Oct 6, 2010 $1.24N/A (N/A)20,000 .. 50,0000%00:00 (00:00)
63 Power of Love Jul 21, 2015 $0.49N/A (N/A)20,000 .. 50,0000%00:00 (00:00)
64 Collisions Jul 28, 2015 $3.99N/A (N/A)50,000 .. 100,0000%00:00 (00:00)
65 Robot vs Birds Zombies Jul 23, 2015 $0.99N/A (N/A)500,000 .. 1,000,0000%00:00 (00:00)
66 In Between Aug 21, 2015 $1.79N/A (N/A/68%)50,000 .. 100,0000%00:00 (00:00)
67 Alpha Runner Sep 2, 2015 $0.99N/A (N/A)100,000 .. 200,0000%00:00 (00:00)
68 Wanda - A Beautiful Apocalypse Jun 3, 2016 $1.99N/A (N/A)100,000 .. 200,0000%00:00 (00:00)
69 Job the Leprechaun Jul 31, 2015 $2.99N/A (N/A)50,000 .. 100,0000%00:00 (00:00)
70 Star Chronicles: Delta Quadrant Jul 7, 2015 $0.99N/A (N/A)200,000 .. 500,0000%00:00 (00:00)
71 Koala Kids Jun 22, 2015 $0.49N/A (N/A)100,000 .. 200,0000%00:00 (00:00)
72 Fate Tectonics Sep 9, 2015 $0.49N/A (N/A)20,000 .. 50,0000%00:00 (00:00)
73 Thrillville: Off the Rails Oct 9, 2007 $3.49N/A (N/A/70%)20,000 .. 50,0000%00:00 (00:00)
74 Egg Returns Home May 5, 2015 N/AN/A (N/A)50,000 .. 100,0000%00:00 (00:00)
75 The Reject Demon: Toko Chapter 0 — Prelude May 8, 2015 $4.99N/A (N/A)20,000 .. 50,0000%00:00 (00:00)
76 Earthtongue Apr 27, 2015 $4.99N/A (N/A)50,000 .. 100,0000%00:00 (00:00)
77 Alter World May 29, 2015 $0.99N/A (N/A)200,000 .. 500,0000%00:00 (00:00)
78 Pester Aug 21, 2015 $0.49N/A (N/A)100,000 .. 200,0000%00:00 (00:00)
79 Streets of Chaos Jan 23, 2015 N/AN/A (N/A)20,000 .. 50,0000%00:00 (00:00)
80 Astro Emporia Feb 2, 2015 $0.99N/A (N/A)50,000 .. 100,0000%00:00 (00:00)
81 Pixel Puzzles 2: Birds Feb 20, 2015 $0.74N/A (N/A)100,000 .. 200,0000%00:00 (00:00)
82 12 Labours of Hercules Mar 23, 2015 $1.49N/A (N/A)100,000 .. 200,0000%00:00 (00:00)

Tags over time:

Access restricted.

This feature is only available to users with special access rights. Sorry.

If you want to proceed, you need to register or log in first and then back Steam Spy on Patreon. Look for Indie or Pro pledge.

Don't forget to use the same email as on Steam Spy!

If you've recently backed Steam Spy on Patreon, please note, that it might take around 15 minutes for your access rights to sync. In most cases you'll need to re-login on Steam Spy too.

Owners of this game also own:

Access restricted.

This feature is only available to users with special access rights. Sorry.

If you want to proceed, you need to register or log in first and then back Steam Spy on Patreon. Look for Indie or Pro pledge.

Don't forget to use the same email as on Steam Spy!

If you've recently backed Steam Spy on Patreon, please note, that it might take around 15 minutes for your access rights to sync. In most cases you'll need to re-login on Steam Spy too.

Playtime distribution:

Access restricted.

This feature is only available to users with special access rights. Sorry.

If you want to proceed, you need to register or log in first and then back Steam Spy on Patreon. Look for Indie or Pro pledge.

Don't forget to use the same email as on Steam Spy!

If you've recently backed Steam Spy on Patreon, please note, that it might take around 15 minutes for your access rights to sync. In most cases you'll need to re-login on Steam Spy too.

Playtime (2 weeks):

Access restricted.

This feature is only available to users with special access rights. Sorry.

If you want to proceed, you need to register or log in first and then back Steam Spy on Patreon. Look for Indie or Pro pledge.

Don't forget to use the same email as on Steam Spy!

If you've recently backed Steam Spy on Patreon, please note, that it might take around 15 minutes for your access rights to sync. In most cases you'll need to re-login on Steam Spy too.

User reviews:

Login required.

Please register or log in to see this information.